| time (UTC) | temp C | wind direction | speed KPH | gust KPH | rain 1hr cm | rain 24hr cm | rain mn cm | humidity % | barometer mb |
| 20260507191603 | 13 | 45 | 1.6 | 3.2 | 0.00 | 0.00 | 0.00 | 71 | 1015.6 |
| 20260507190342 | 14 | 23 | 0.0 | 1.6 | 0.00 | 0.00 | 0.00 | 70 | 1015.6 |
| 20260507185201 | 14 | 45 | 1.6 | 3.2 | 0.00 | 0.00 | 0.00 | 70 | 1015.6 |
| 20260507183940 | 14 | 45 | 3.2 | 4.8 | 0.00 | 0.00 | 0.00 | 69 | 1015.6 |
| 20260507182758 | 15 | 45 | 1.6 | 4.8 | 0.00 | 0.00 | 0.00 | 67 | 1015.6 |
| 20260507181538 | 15 | 45 | 3.2 | 6.4 | 0.00 | 0.00 | 0.00 | 67 | 1015.6 |
| 20260507180336 | 15 | 30 | 3.2 | 4.8 | 0.00 | 0.00 | 0.00 | 68 | 1015.6 |
| 20260507175135 | 15 | 45 | 1.6 | 3.2 | 0.00 | 0.00 | 0.00 | 67 | 1015.6 |
| 20260507173933 | 15 | 68 | 1.6 | 4.8 | 0.00 | 0.00 | 0.00 | 67 | 1015.6 |
| 20260507172732 | 15 | 31 | 3.2 | 4.8 | 0.00 | 0.00 | 0.00 | 67 | 1015.6 |
| 20260507171531 | 15 | 39 | 3.2 | 4.8 | 0.00 | 0.00 | 0.00 | 66 | 1015.6 |
| 20260507170330 | 15 | 31 | 3.2 | 4.8 | 0.00 | 0.00 | 0.00 | 66 | 1015.6 |
| 20260507165129 | 15 | 11 | 3.2 | 4.8 | 0.00 | 0.00 | 0.00 | 66 | 1015.6 |
| 20260507163928 | 15 | 31 | 3.2 | 4.8 | 0.00 | 0.00 | 0.00 | 65 | 1015.6 |
| 20260507162727 | 15 | 68 | 3.2 | 4.8 | 0.00 | 0.00 | 0.00 | 65 | 1015.6 |
| 20260507161526 | 15 | 31 | 1.6 | 3.2 | 0.00 | 0.00 | 0.00 | 64 | 1015.6 |
| 20260507160324 | 15 | 26 | 4.8 | 6.4 | 0.00 | 0.00 | 0.00 | 64 | 1015.6 |
| 20260507155123 | 15 | 75 | 4.8 | 8.0 | 0.00 | 0.00 | 0.00 | 64 | 1015.6 |
| 20260507153922 | 15 | 40 | 3.2 | 3.2 | 0.00 | 0.00 | 0.00 | 63 | 1015.6 |
| 20260507152721 | 15 | 0 | 3.2 | 4.8 | 0.00 | 0.00 | 0.00 | 64 | 1015.6 |
| 20260507151520 | 16 | 16 | 3.2 | 4.8 | 0.00 | 0.00 | 0.00 | 63 | 1015.6 |
| 20260507150319 | 15 | 51 | 3.2 | 3.2 | 0.00 | 0.00 | 0.00 | 63 | 1015.6 |
| 20260507145118 | 15 | 60 | 6.4 | 9.7 | 0.00 | 0.00 | 0.00 | 63 | 1015.6 |
| 20260507143917 | 15 | 58 | 3.2 | 4.8 | 0.00 | 0.00 | 0.00 | 64 | 1015.6 |
| 20260507142716 | 15 | 54 | 3.2 | 8.0 | 0.00 | 0.00 | 0.00 | 64 | 1015.6 |
| 20260507141615 | 15 | 49 | 3.2 | 4.8 | 0.00 | 0.00 | 0.00 | 64 | 1015.6 |
| 20260507140433 | 15 | 62 | 4.8 | 4.8 | 0.00 | 0.00 | 0.00 | 64 | 1015.6 |
| 20260507135232 | 16 | 23 | 1.6 | 1.6 | 0.00 | 0.00 | 0.00 | 65 | 1015.6 |
| 20260507134011 | 16 | 26 | 3.2 | 8.0 | 0.00 | 0.00 | 0.00 | 63 | 1015.6 |
| 20260507132850 | 16 | 65 | 0.0 | 1.6 | 0.00 | 0.00 | 0.00 | 62 | 1015.6 |
| 20260507131609 | 16 | 54 | 3.2 | 4.8 | 0.00 | 0.00 | 0.00 | 61 | 1015.6 |
| 20260507130427 | 16 | 45 | 4.8 | 8.0 | 0.00 | 0.00 | 0.00 | 61 | 1015.6 |
| 20260507125206 | 16 | 343 | 3.2 | 11.3 | 0.00 | 0.00 | 0.00 | 62 | 1015.6 |
| 20260507124007 | 16 | 22 | 3.2 | 9.7 | 0.00 | 0.00 | 0.00 | 63 | 1015.6 |
| 20260507122805 | 16 | 44 | 4.8 | 8.0 | 0.00 | 0.00 | 0.00 | 63 | 1015.6 |
| 20260507121623 | 16 | 59 | 3.2 | 4.8 | 0.00 | 0.00 | 0.00 | 63 | 1015.6 |
| 20260507120402 | 16 | 313 | 1.6 | 6.4 | 0.00 | 0.00 | 0.00 | 64 | 1015.6 |
| 20260507115201 | 16 | 23 | 3.2 | 8.0 | 0.00 | 0.00 | 0.00 | 64 | 1015.6 |
| 20260507114000 | 16 | 45 | 6.4 | 9.7 | 0.00 | 0.00 | 0.00 | 63 | 1015.6 |
| 20260507112759 | 16 | 68 | 6.4 | 6.4 | 0.00 | 0.00 | 0.00 | 63 | 1015.6 |
| 20260507111557 | 16 | 63 | 3.2 | 8.0 | 0.00 | 0.00 | 0.00 | 63 | 1015.6 |
| 20260507110357 | 16 | 29 | 4.8 | 8.0 | 0.00 | 0.00 | 0.00 | 63 | 1015.6 |
| 20260507105156 | 16 | 0 | 1.6 | 6.4 | 0.00 | 0.00 | 0.00 | 62 | 1015.6 |
| 20260507103954 | 16 | 61 | 3.2 | 6.4 | 0.00 | 0.00 | 0.00 | 61 | 1015.6 |
| 20260507102813 | 17 | 55 | 8.0 | 9.7 | 0.00 | 0.00 | 0.00 | 62 | 1015.6 |
| 20260507101552 | 17 | 27 | 6.4 | 14.5 | 0.00 | 0.00 | 0.00 | 65 | 1015.6 |
| 20260507100351 | 16 | 119 | 3.2 | 4.8 | 0.00 | 0.00 | 0.00 | 65 | 1015.6 |
| 20260507095149 | 16 | 52 | 6.4 | 14.5 | 0.00 | 0.00 | 0.00 | 65 | 1015.6 |
| 20260507093948 | 16 | 18 | 6.4 | 11.3 | 0.00 | 0.00 | 0.00 | 64 | 1015.6 |
| 20260507092747 | 17 | 45 | 4.8 | 8.0 | 0.00 | 0.00 | 0.00 | 65 | 1015.6 |
| 20260507091546 | 17 | 30 | 8.0 | 14.5 | 0.00 | 0.00 | 0.00 | 66 | 1015.6 |
| 20260507090345 | 16 | 355 | 6.4 | 9.7 | 0.00 | 0.00 | 0.00 | 69 | 1015.6 |
| 20260507085143 | 16 | 21 | 6.4 | 11.3 | 0.00 | 0.00 | 0.00 | 70 | 1015.6 |
| 20260507083942 | 16 | 12 | 1.6 | 6.4 | 0.00 | 0.00 | 0.00 | 72 | 1015.6 |
| 20260507082741 | 15 | 12 | 3.2 | 8.0 | 0.00 | 0.00 | 0.00 | 73 | 1015.6 |
| 20260507081540 | 14 | 45 | 8.0 | 11.3 | 0.00 | 0.00 | 0.00 | 74 | 1015.6 |
| 20260507080338 | 14 | 68 | 6.4 | 8.0 | 0.00 | 0.00 | 0.00 | 75 | 1015.6 |
| 20260507075137 | 13 | 50 | 6.4 | 8.0 | 0.00 | 0.00 | 0.00 | 77 | 1015.6 |
| 20260507073936 | 13 | 32 | 6.4 | 8.0 | 0.00 | 0.00 | 0.00 | 79 | 1015.6 |
| 20260507072735 | 12 | 45 | 8.0 | 9.7 | 0.00 | 0.00 | 0.00 | 80 | 1015.6 |
| 20260507071554 | 12 | 59 | 4.8 | 8.0 | 0.00 | 0.00 | 0.00 | 83 | 1015.6 |
| 20260507070353 | 11 | 68 | 6.4 | 8.0 | 0.00 | 0.00 | 0.00 | 85 | 1015.6 |
| 20260507065132 | 11 | 40 | 3.2 | 6.4 | 0.00 | 0.00 | 0.00 | 87 | 1015.6 |
| 20260507063930 | 10 | 30 | 3.2 | 4.8 | 0.00 | 0.00 | 0.00 | 88 | 1015.6 |
| 20260507062730 | 10 | 45 | 9.7 | 12.9 | 0.00 | 0.00 | 0.00 | 90 | 1015.6 |
| 20260507061548 | 10 | 23 | 6.4 | 8.0 | 0.00 | 0.00 | 0.00 | 90 | 1015.6 |
| 20260507060328 | 10 | 45 | 4.8 | 8.0 | 0.00 | 0.00 | 0.00 | 91 | 1015.6 |
| 20260507055126 | 10 | 45 | 8.0 | 9.7 | 0.00 | 0.00 | 0.00 | 91 | 1015.6 |
| 20260507053925 | 10 | 2 | 3.2 | 8.0 | 0.00 | 0.00 | 0.00 | 92 | 1012.2 |
| 20260507052724 | 10 | 37 | 3.2 | 6.4 | 0.00 | 0.00 | 0.00 | 92 | 1012.2 |
| 20260507051523 | 10 | 23 | 1.6 | 4.8 | 0.00 | 0.00 | 0.00 | 91 | 1012.2 |
| 20260507050322 | 10 | 23 | 1.6 | 4.8 | 0.00 | 0.00 | 0.00 | 91 | 1012.2 |
| 20260507045121 | 10 | 27 | 1.6 | 4.8 | 0.00 | 0.00 | 0.00 | 91 | 1012.2 |
| 20260507043920 | 10 | 33 | 1.6 | 3.2 | 0.00 | 0.00 | 0.00 | 91 | 1012.2 |
| 20260507042718 | 10 | 39 | 3.2 | 8.0 | 0.00 | 0.00 | 0.00 | 90 | 1012.2 |
| 20260507041517 | 10 | 23 | 3.2 | 4.8 | 0.00 | 0.00 | 0.00 | 90 | 1012.2 |
| 20260507040336 | 10 | 33 | 3.2 | 4.8 | 0.00 | 0.00 | 0.00 | 90 | 1012.2 |
| 20260507035235 | 10 | 24 | 1.6 | 4.8 | 0.00 | 0.00 | 0.00 | 90 | 1012.2 |
| 20260507034014 | 10 | 4 | 3.2 | 4.8 | 0.00 | 0.00 | 0.00 | 89 | 1012.2 |
| 20260507032813 | 10 | 12 | 3.2 | 8.0 | 0.00 | 0.00 | 0.00 | 89 | 1012.2 |
| 20260507031612 | 10 | 39 | 4.8 | 8.0 | 0.00 | 0.00 | 0.00 | 88 | 1012.2 |
| 20260507030411 | 10 | 27 | 1.6 | 4.8 | 0.00 | 0.00 | 0.00 | 88 | 1012.2 |
| 20260507025210 | 10 | 5 | 4.8 | 11.3 | 0.00 | 0.00 | 0.00 | 87 | 1012.2 |
| 20260507024009 | 10 | 0 | 8.0 | 9.7 | 0.00 | 0.00 | 0.00 | 87 | 1012.2 |
| 20260507022808 | 10 | 3 | 3.2 | 6.4 | 0.00 | 0.00 | 0.00 | 86 | 1012.2 |
| 20260507021606 | 11 | 23 | 3.2 | 6.4 | 0.00 | 0.00 | 0.00 | 86 | 1012.2 |
| 20260507020426 | 11 | 0 | 3.2 | 3.2 | 0.00 | 0.00 | 0.00 | 85 | 1012.2 |
| 20260507015204 | 11 | 17 | 4.8 | 8.0 | 0.00 | 0.00 | 0.00 | 85 | 1012.2 |
| 20260507014003 | 11 | 11 | 1.6 | 4.8 | 0.00 | 0.00 | 0.00 | 85 | 1012.2 |
| 20260507012802 | 11 | 0 | 3.2 | 4.8 | 0.00 | 0.00 | 0.00 | 85 | 1012.2 |
| 20260507011601 | 11 | 23 | 1.6 | 4.8 | 0.00 | 0.00 | 0.00 | 84 | 1012.2 |
| 20260507010400 | 11 | 23 | 3.2 | 4.8 | 0.00 | 0.00 | 0.00 | 84 | 1012.2 |
| 20260507005158 | 11 | 351 | 4.8 | 8.0 | 0.00 | 0.00 | 0.00 | 84 | 1012.2 |
| 20260507003957 | 11 | 0 | 4.8 | 6.4 | 0.00 | 0.00 | 0.00 | 84 | 1012.2 |
| 20260507002756 | 11 | 23 | 0.0 | 1.6 | 0.00 | 0.00 | 0.00 | 84 | 1012.2 |
| 20260507001555 | 11 | 8 | 1.6 | 4.8 | 0.00 | 0.00 | 0.00 | 84 | 1012.2 |
| 20260507000354 | 11 | 2 | 1.6 | 4.8 | 0.00 | 0.00 | 0.00 | 83 | 1012.2 |
| 20260506235153 | 11 | 23 | 0.0 | 1.6 | 0.00 | 0.00 | 0.00 | 83 | 1012.2 |
| 20260506233952 | 11 | 0 | 1.6 | 4.8 | 0.00 | 0.00 | 0.00 | 83 | 1012.2 |
| 20260506232751 | 11 | 42 | 0.0 | 1.6 | 0.00 | 0.00 | 0.00 | 83 | 1012.2 |
| 20260506231549 | 11 | 25 | 0.0 | 1.6 | 0.00 | 0.00 | 0.00 | 82 | 1012.2 |
| 20260506230347 | 11 | 23 | 0.0 | 1.6 | 0.00 | 0.00 | 0.00 | 82 | 1012.2 |
| 20260506225206 | 11 | 7 | 1.6 | 1.6 | 0.00 | 0.00 | 0.00 | 81 | 1012.2 |
| 20260506223945 | 11 | 41 | 1.6 | 1.6 | 0.00 | 0.00 | 0.00 | 81 | 1012.2 |
| 20260506222744 | 11 | 45 | 1.6 | 3.2 | 0.00 | 0.00 | 0.00 | 80 | 1012.2 |
| 20260506221543 | 11 | 11 | 0.0 | 3.2 | 0.00 | 0.00 | 0.00 | 80 | 1012.2 |
| 20260506220342 | 11 | 23 | 1.6 | 3.2 | 0.00 | 0.00 | 0.00 | 80 | 1012.2 |
| 20260506215150 | 11 | 23 | 1.6 | 1.6 | 0.00 | 0.00 | 0.00 | 79 | 1012.2 |
| 20260506213949 | 11 | 45 | 0.0 | 1.6 | 0.00 | 0.00 | 0.00 | 79 | 1012.2 |
| 20260506212748 | 11 | 45 | 1.6 | 3.2 | 0.00 | 0.00 | 0.00 | 79 | 1012.2 |
| 20260506211548 | 11 | 34 | 1.6 | 3.2 | 0.00 | 0.00 | 0.00 | 79 | 1012.2 |
| 20260506210346 | 11 | 45 | 3.2 | 4.8 | 0.00 | 0.00 | 0.00 | 78 | 1012.2 |
| 20260506205146 | 11 | 45 | 3.2 | 4.8 | 0.00 | 0.00 | 0.00 | 78 | 1012.2 |
| 20260506203944 | 11 | 39 | 4.8 | 8.0 | 0.00 | 0.00 | 0.00 | 78 | 1012.2 |
| 20260506202743 | 11 | 25 | 1.6 | 4.8 | 0.00 | 0.00 | 0.00 | 78 | 1012.2 |
| 20260506201602 | 12 | 63 | 6.4 | 8.0 | 0.00 | 0.00 | 0.00 | 77 | 1012.2 |
| 20260506200401 | 12 | 33 | 8.0 | 9.7 | 0.00 | 0.00 | 0.00 | 77 | 1012.2 |
| 20260506195200 | 12 | 55 | 6.4 | 9.7 | 0.00 | 0.00 | 0.00 | 77 | 1012.2 |
| 20260506193939 | 12 | 45 | 8.0 | 12.9 | 0.00 | 0.00 | 0.00 | 76 | 1012.2 |
| 20260506192737 | 12 | 45 | 4.8 | 8.0 | 0.00 | 0.00 | 0.00 | 76 | 1008.8 |